sat.trackr.live / text

‹ back to catalog

STARLINK-1527

NORAD 46048 · 2020-055X

PAYLOAD ACTIVE UNKNOWN

§ Identity

Operator
Country
US
Launch date
2020-08-07
Launch site
AFETR
Launch vehicle
Mass (kg)
RCS (m²)

Purposes: comms

External: N2YO · Heavens-Above · Gunter

§ Orbital elements

Epoch: 2026-05-25T02:33:33.666624Z

Period
94.01 min
Inclination
53.1595°
Eccentricity
0.0001503
Mean motion
15.31692266 rev/d
Perigee alt
469.7 km
Apogee alt
471.8 km
Semi-major
6,848.9 km
B*
1.1493e-4
RAAN
118.5839°
Arg perigee
77.9370°
Mean anomaly
282.1799°
Rev number
32,074

§ Raw data

STARLINK-15271 46048U 20055X   26145.10663966  .00003202  00000+0  11493-3 0  99962 46048  53.1595 118.5839 0001503  77.9370 282.1799 15.31692266320744

JSON: /api/v1/satellites/46048 · /tle

For live sub-satellite position, see the globe view (requires WebGL).

§ Visibility from observer

Set your observer location to see the next 7 days of passes ≥ 10°. The values pass through the URL so the page stays shareable.

No JS? Fill the form by hand. The geolocation button needs JavaScript.